Time,TemperatureF,DewpointF,PressureIn,WindDirection,WindDirectionDegrees,WindSpeedMPH,WindSpeedGustMPH,Humidity,HourlyPrecipIn,Conditions,Clouds,dailyrainin,SoftwareType,DateUTC
2013-08-30 03:00:00,65.7,57.5,30.02,SE,135,0.0,0.0,75,0.00,,,0.00,WUHU216HW,2013-08-30 10:00:00,
2013-08-30 03:05:00,65.7,57.5,30.02,SE,135,0.0,0.0,75,0.00,,,0.00,WUHU216HW,2013-08-30 10:05:00,
2013-08-30 03:10:00,65.5,57.3,30.02,SE,135,0.0,0.0,75,0.00,,,0.00,WUHU216HW,2013-08-30 10:10:00,
2013-08-30 03:15:00,65.3,57.2,30.02,SE,135,0.0,0.0,75,0.00,,,0.00,WUHU216HW,2013-08-30 10:15:00,
2013-08-30 03:20:00,65.3,57.2,30.02,SE,135,0.0,0.0,75,0.00,,,0.00,WUHU216HW,2013-08-30 10:20:00,
2013-08-30 03:25:00,65.2,57.4,30.02,SE,135,0.0,0.0,76,0.00,,,0.00,WUHU216HW,2013-08-30 10:25:00,
2013-08-30 03:30:00,65.2,57.4,30.02,SE,135,0.0,0.0,76,0.00,,,0.00,WUHU216HW,2013-08-30 10:30:00,
2013-08-30 03:35:00,65.0,57.6,30.02,SE,135,0.0,0.0,77,0.00,,,0.00,WUHU216HW,2013-08-30 10:35:00,
2013-08-30 03:40:00,64.8,57.4,30.02,SE,135,0.0,0.0,77,0.00,,,0.00,WUHU216HW,2013-08-30 10:40:00,
2013-08-30 03:45:00,64.8,57.4,30.02,SE,135,0.0,0.0,77,0.00,,,0.00,WUHU216HW,2013-08-30 10:45:00,
2013-08-30 03:50:00,64.6,57.3,30.02,SE,135,0.0,0.0,77,0.00,,,0.00,WUHU216HW,2013-08-30 10:50:00,
2013-08-30 03:55:00,64.4,57.1,30.02,SE,135,0.0,0.0,77,0.00,,,0.00,WUHU216HW,2013-08-30 10:55:00,
2013-08-30 04:00:00,64.4,57.4,30.02,SE,135,0.0,0.0,78,0.00,,,0.00,WUHU216HW,2013-08-30 11:00:00,
2013-08-30 04:04:00,64.4,57.4,30.02,SE,135,0.0,0.0,78,0.00,,,0.00,WUHU216HW,2013-08-30 11:04:00,
2013-08-30 04:05:00,64.4,57.4,30.02,SE,135,0.0,0.0,78,0.00,,,0.00,WUHU216HW,2013-08-30 11:05:00,
2013-08-30 04:10:00,64.4,57.4,30.02,SE,135,0.0,0.0,78,0.00,,,0.00,WUHU216HW,2013-08-30 11:10:00,
2013-08-30 04:33:00,63.9,57.2,30.02,SE,135,0.0,0.0,79,0.00,,,0.00,WUHU216HW,2013-08-30 11:33:00,
2013-08-30 04:38:00,63.7,57.1,30.02,SE,135,0.0,0.0,79,0.00,,,0.00,WUHU216HW,2013-08-30 11:38:00,
2013-08-30 04:43:00,63.7,57.1,30.02,SE,135,0.0,0.0,79,0.00,,,0.00,WUHU216HW,2013-08-30 11:43:00,
2013-08-30 04:48:00,63.7,57.1,30.02,SE,135,0.0,0.0,79,0.00,,,0.00,WUHU216HW,2013-08-30 11:48:00,
2013-08-30 04:53:00,63.5,57.2,30.02,SE,135,0.0,0.0,80,0.00,,,0.00,WUHU216HW,2013-08-30 11:53:00,
2013-08-30 04:58:00,63.5,57.2,30.02,SE,135,0.0,0.0,80,0.00,,,0.00,WUHU216HW,2013-08-30 11:58:00,
2013-08-30 05:02:00,63.4,56.7,30.02,SE,135,0.0,0.0,79,0.00,,,0.00,WUHU216HW,2013-08-30 12:02:00,
2013-08-30 05:03:00,63.4,56.7,30.02,SE,135,0.0,0.0,79,0.00,,,0.00,WUHU216HW,2013-08-30 12:03:00,
2013-08-30 05:08:00,63.4,56.7,30.02,SE,135,0.0,0.0,79,0.00,,,0.00,WUHU216HW,2013-08-30 12:08:00,
2013-08-30 05:13:00,63.2,56.5,30.02,SE,135,0.0,0.0,79,0.00,,,0.00,WUHU216HW,2013-08-30 12:13:00,
2013-08-30 05:18:00,63.2,56.5,30.02,SE,135,0.0,0.0,79,0.00,,,0.00,WUHU216HW,2013-08-30 12:18:00,
2013-08-30 05:23:00,63.0,56.3,30.02,SE,135,0.0,0.0,79,0.00,,,0.00,WUHU216HW,2013-08-30 12:23:00,
2013-08-30 05:29:00,63.0,56.3,30.02,SE,135,0.0,0.0,79,0.00,,,0.00,WUHU216HW,2013-08-30 12:29:00,
2013-08-30 05:34:00,63.0,56.3,30.03,SE,135,0.0,0.0,79,0.00,,,0.00,WUHU216HW,2013-08-30 12:34:00,
2013-08-30 05:39:00,62.8,56.2,30.03,SE,135,0.0,0.0,79,0.00,,,0.00,WUHU216HW,2013-08-30 12:39:00,
2013-08-30 05:40:00,62.8,56.2,30.03,SE,135,0.0,0.0,79,0.00,,,0.00,WUHU216HW,2013-08-30 12:40:00,
2013-08-30 05:44:00,62.8,56.2,30.03,SE,135,0.0,0.0,79,0.00,,,0.00,WUHU216HW,2013-08-30 12:44:00,
2013-08-30 05:49:00,62.8,56.2,30.03,SE,135,0.0,0.0,79,0.00,,,0.00,WUHU216HW,2013-08-30 12:49:00,
2013-08-30 08:00:00,64.3,58.7,30.05,SW,225,0.9,0.9,82,0.00,,,0.00,WUHU216HW,2013-08-30 15:00:00,
2013-08-30 08:05:00,64.3,58.7,30.05,SSW,203,0.2,1.1,82,0.00,,,0.00,WUHU216HW,2013-08-30 15:05:00,
2013-08-30 08:10:00,64.6,59.1,30.05,WSW,248,0.2,0.2,82,0.00,,,0.00,WUHU216HW,2013-08-30 15:10:00,
2013-08-30 08:15:00,64.8,59.2,30.05,NNE,23,0.0,1.6,82,0.00,,,0.00,WUHU216HW,2013-08-30 15:15:00,
2013-08-30 08:20:00,65.0,59.3,30.05,South,180,1.6,1.6,82,0.00,,,0.00,WUHU216HW,2013-08-30 15:20:00,
2013-08-30 08:25:00,65.2,59.5,30.05,SE,135,0.0,1.6,82,0.00,,,0.00,WUHU216HW,2013-08-30 15:25:00,
2013-08-30 08:30:00,65.3,59.7,30.05,SSE,158,0.0,1.1,82,0.00,,,0.00,WUHU216HW,2013-08-30 15:30:00,
2013-08-30 08:35:00,65.5,59.6,30.05,SSE,158,0.0,1.1,81,0.00,,,0.00,WUHU216HW,2013-08-30 15:35:00,
2013-08-30 08:40:00,65.7,59.8,30.05,SSW,203,0.0,0.2,81,0.00,,,0.00,WUHU216HW,2013-08-30 15:40:00,
2013-08-30 08:45:00,66.1,60.1,30.05,SSE,158,0.7,1.3,81,0.00,,,0.00,WUHU216HW,2013-08-30 15:45:00,
2013-08-30 08:50:00,66.2,60.3,30.05,South,180,0.0,1.3,81,0.00,,,0.00,WUHU216HW,2013-08-30 15:50:00,
2013-08-30 08:55:00,66.8,60.5,30.06,SW,225,1.8,1.8,80,0.00,,,0.00,WUHU216HW,2013-08-30 15:55:00,
2013-08-30 09:00:00,67.3,61.0,30.05,SSE,158,0.2,1.8,80,0.00,,,0.00,WUHU216HW,2013-08-30 16:00:00,
2013-08-30 09:05:00,67.7,61.0,30.05,SSW,203,0.7,1.3,79,0.00,,,0.00,WUHU216HW,2013-08-30 16:05:00,
2013-08-30 09:10:00,67.9,61.2,30.06,SSE,158,0.9,1.1,79,0.00,,,0.00,WUHU216HW,2013-08-30 16:10:00,
2013-08-30 09:15:00,68.2,61.6,30.06,SE,135,0.0,0.9,79,0.00,,,0.00,WUHU216HW,2013-08-30 16:15:00,
2013-08-30 09:20:00,68.4,61.3,30.06,SW,225,1.8,1.8,78,0.00,,,0.00,WUHU216HW,2013-08-30 16:20:00,
2013-08-30 09:25:00,68.6,61.1,30.06,NW,315,0.4,2.0,77,0.00,,,0.00,WUHU216HW,2013-08-30 16:25:00,
2013-08-30 09:30:00,68.8,61.3,30.06,WNW,293,0.0,2.0,77,0.00,,,0.00,WUHU216HW,2013-08-30 16:30:00,
2013-08-30 09:35:00,69.1,61.6,30.06,NNW,338,0.4,0.7,77,0.00,,,0.00,WUHU216HW,2013-08-30 16:35:00,
2013-08-30 09:40:00,69.5,61.9,30.06,SSE,158,0.7,0.9,77,0.00,,,0.00,WUHU216HW,2013-08-30 16:40:00,
2013-08-30 09:45:00,70.2,62.2,30.06,West,270,0.2,0.9,76,0.00,,,0.00,WUHU216HW,2013-08-30 16:45:00,
2013-08-30 09:50:00,71.1,62.4,30.06,East,90,0.4,0.9,74,0.00,,,0.00,WUHU216HW,2013-08-30 16:50:00,
2013-08-30 09:55:00,72.0,63.3,30.06,WNW,293,0.2,0.9,74,0.00,,,0.00,WUHU216HW,2013-08-30 16:55:00,
2013-08-30 10:01:00,72.9,63.8,30.06,NNW,338,1.1,1.1,73,0.00,,,0.00,WUHU216HW,2013-08-30 17:01:00,
2013-08-30 10:06:00,74.2,64.6,30.06,NW,315,1.1,1.1,72,0.00,,,0.00,WUHU216HW,2013-08-30 17:06:00,
2013-08-30 10:11:00,75.1,64.2,30.06,ESE,113,0.9,1.1,69,0.00,,,0.00,WUHU216HW,2013-08-30 17:11:00,
2013-08-30 10:16:00,75.6,64.7,30.06,NE,45,2.7,2.7,69,0.00,,,0.00,WUHU216HW,2013-08-30 17:16:00,
2013-08-30 10:21:00,76.3,64.5,30.06,NW,315,0.2,2.7,67,0.00,,,0.00,WUHU216HW,2013-08-30 17:21:00,
2013-08-30 10:26:00,77.0,64.8,30.05,West,270,0.2,1.1,66,0.00,,,0.00,WUHU216HW,2013-08-30 17:26:00,
2013-08-30 10:31:00,77.4,65.2,30.05,SE,135,1.3,1.8,66,0.00,,,0.00,WUHU216HW,2013-08-30 17:31:00,
2013-08-30 10:36:00,77.9,65.3,30.05,NNW,338,0.4,1.8,65,0.00,,,0.00,WUHU216HW,2013-08-30 17:36:00,
2013-08-30 10:41:00,78.1,65.0,30.05,WNW,293,1.3,1.3,64,0.00,,,0.00,WUHU216HW,2013-08-30 17:41:00,
2013-08-30 10:46:00,78.8,64.4,30.05,SSE,158,1.1,1.6,61,0.00,,,0.00,WUHU216HW,2013-08-30 17:46:00,
2013-08-30 10:51:00,79.6,65.0,30.05,NNW,338,0.4,1.6,61,0.00,,,0.00,WUHU216HW,2013-08-30 17:51:00,
2013-08-30 10:56:00,80.1,65.1,30.05,NW,315,0.7,2.9,60,0.00,,,0.00,WUHU216HW,2013-08-30 17:56:00,
2013-08-30 11:01:00,80.5,65.3,30.05,WNW,293,0.9,2.9,60,0.00,,,0.00,WUHU216HW,2013-08-30 18:01:00,
2013-08-30 11:06:00,81.0,64.8,30.05,SSE,158,0.7,2.2,58,0.00,,,0.00,WUHU216HW,2013-08-30 18:06:00,
2013-08-30 11:11:00,81.5,64.8,30.05,NE,45,1.8,2.2,57,0.00,,,0.00,WUHU216HW,2013-08-30 18:11:00,
2013-08-30 11:16:00,81.9,64.5,30.05,North,0,0.7,1.8,56,0.00,,,0.00,WUHU216HW,2013-08-30 18:16:00,
2013-08-30 11:21:00,82.4,65.1,30.05,NNW,338,0.9,1.8,56,0.00,,,0.00,WUHU216HW,2013-08-30 18:21:00,
2013-08-30 11:26:00,83.0,65.6,30.05,ENE,68,0.4,1.8,56,0.00,,,0.00,WUHU216HW,2013-08-30 18:26:00,
2013-08-30 11:31:00,83.3,64.9,30.05,WNW,293,1.6,2.2,54,0.00,,,0.00,WUHU216HW,2013-08-30 18:31:00,
2013-08-30 11:36:00,83.9,63.9,30.05,East,90,1.8,2.2,51,0.00,,,0.00,WUHU216HW,2013-08-30 18:36:00,
2013-08-30 11:41:00,84.2,64.3,30.05,ENE,68,1.1,1.8,51,0.00,,,0.00,WUHU216HW,2013-08-30 18:41:00,
2013-08-30 11:46:00,84.4,61.4,30.05,NW,315,3.6,3.6,46,0.00,,,0.00,WUHU216HW,2013-08-30 18:46:00,
2013-08-30 11:51:00,84.2,63.1,30.04,NW,315,0.9,3.6,49,0.00,,,0.00,WUHU216HW,2013-08-30 18:51:00,
2013-08-30 11:56:00,84.2,63.1,30.04,WNW,293,1.8,2.2,49,0.00,,,0.00,WUHU216HW,2013-08-30 18:56:00,
2013-08-30 12:01:00,84.6,63.5,30.04,NNW,338,1.1,2.0,49,0.00,,,0.00,WUHU216HW,2013-08-30 19:01:00,
2013-08-30 12:06:00,85.0,62.5,30.04,WNW,293,2.0,2.5,47,0.00,,,0.00,WUHU216HW,2013-08-30 19:06:00,
2013-08-30 12:11:00,85.1,62.6,30.04,ENE,68,2.9,2.9,47,0.00,,,0.00,WUHU216HW,2013-08-30 19:11:00,
2013-08-30 12:16:00,85.7,63.7,30.04,NNE,23,1.3,2.9,48,0.00,,,0.00,WUHU216HW,2013-08-30 19:16:00,
2013-08-30 12:21:00,86.2,63.0,30.04,NNW,338,1.8,2.0,46,0.00,,,0.00,WUHU216HW,2013-08-30 19:21:00,
2013-08-30 12:26:00,86.4,61.3,30.04,NNW,338,1.8,2.0,43,0.00,,,0.00,WUHU216HW,2013-08-30 19:26:00,
2013-08-30 12:31:00,86.6,62.6,30.04,WNW,293,1.1,2.0,45,0.00,,,0.00,WUHU216HW,2013-08-30 19:31:00,
2013-08-30 12:36:00,86.8,62.2,30.03,NNE,23,0.9,3.1,44,0.00,,,0.00,WUHU216HW,2013-08-30 19:36:00,
2013-08-30 12:41:00,87.3,63.4,30.03,North,0,0.9,3.1,45,0.00,,,0.00,WUHU216HW,2013-08-30 19:41:00,
2013-08-30 12:47:00,87.8,62.6,30.03,NE,45,0.9,1.8,43,0.00,,,0.00,WUHU216HW,2013-08-30 19:47:00,
2013-08-30 12:52:00,88.2,62.2,30.02,West,270,0.4,2.0,42,0.00,,,0.00,WUHU216HW,2013-08-30 19:52:00,
2013-08-30 12:57:00,88.2,62.2,30.02,NW,315,1.6,2.0,42,0.00,,,0.00,WUHU216HW,2013-08-30 19:57:00,
2013-08-30 13:02:00,88.4,61.8,30.02,ENE,68,2.7,2.7,41,0.00,,,0.00,WUHU216HW,2013-08-30 20:02:00,
2013-08-30 13:07:00,88.6,61.8,30.02,NE,45,2.5,2.7,41,0.00,,,0.00,WUHU216HW,2013-08-30 20:07:00,
2013-08-30 13:12:00,88.6,62.6,30.01,NNW,338,0.2,2.5,42,0.00,,,0.00,WUHU216HW,2013-08-30 20:12:00,
2013-08-30 13:17:00,88.6,61.8,30.01,NNE,23,1.6,1.8,41,0.00,,,0.00,WUHU216HW,2013-08-30 20:17:00,
2013-08-30 13:22:00,88.4,61.8,30.01,North,0,1.8,2.5,41,0.00,,,0.00,WUHU216HW,2013-08-30 20:22:00,
2013-08-30 13:27:00,88.6,62.6,30.01,SSW,203,0.4,2.5,42,0.00,,,0.00,WUHU216HW,2013-08-30 20:27:00,
2013-08-30 13:32:00,88.9,62.8,30.01,NNW,338,0.0,1.8,42,0.00,,,0.00,WUHU216HW,2013-08-30 20:32:00,
2013-08-30 13:37:00,89.1,61.7,30.01,NW,315,2.7,2.7,40,0.00,,,0.00,WUHU216HW,2013-08-30 20:37:00,
2013-08-30 13:42:00,89.3,62.5,30.01,NW,315,1.8,2.7,41,0.00,,,0.00,WUHU216HW,2013-08-30 20:42:00,
2013-08-30 13:47:00,89.3,61.8,30.01,NW,315,1.1,2.5,40,0.00,,,0.00,WUHU216HW,2013-08-30 20:47:00,
2013-08-30 13:52:00,89.5,61.9,30.00,NNW,338,1.6,2.2,40,0.00,,,0.00,WUHU216HW,2013-08-30 20:52:00,
2013-08-30 13:57:00,89.6,62.1,30.00,North,0,1.1,1.8,40,0.00,,,0.00,WUHU216HW,2013-08-30 20:57:00,
2013-08-30 14:02:00,90.2,62.6,30.00,WNW,293,1.6,1.8,40,0.00,,,0.00,WUHU216HW,2013-08-30 21:02:00,
2013-08-30 14:07:00,90.5,62.9,30.00,NNE,23,1.3,2.0,40,0.00,,,0.00,WUHU216HW,2013-08-30 21:07:00,
2013-08-30 14:12:00,90.7,63.1,30.00,WNW,293,2.0,2.0,40,0.00,,,0.00,WUHU216HW,2013-08-30 21:12:00,
2013-08-30 14:17:00,90.7,62.3,29.99,NW,315,1.1,2.0,39,0.00,,,0.00,WUHU216HW,2013-08-30 21:17:00,
2013-08-30 14:22:00,90.9,62.5,29.99,NNW,338,0.4,2.9,39,0.00,,,0.00,WUHU216HW,2013-08-30 21:22:00,
2013-08-30 14:27:00,91.1,60.2,29.99,NW,315,1.1,2.9,36,0.00,,,0.00,WUHU216HW,2013-08-30 21:27:00,
2013-08-30 14:32:00,90.9,59.3,29.98,NW,315,1.6,2.5,35,0.00,,,0.00,WUHU216HW,2013-08-30 21:32:00,
2013-08-30 14:37:00,90.9,60.0,29.98,NW,315,1.1,2.5,36,0.00,,,0.00,WUHU216HW,2013-08-30 21:37:00,
2013-08-30 14:42:00,90.7,60.0,29.98,WNW,293,2.5,2.5,36,0.00,,,0.00,WUHU216HW,2013-08-30 21:42:00,
2013-08-30 14:47:00,91.1,59.4,29.98,North,0,1.1,2.5,35,0.00,,,0.00,WUHU216HW,2013-08-30 21:47:00,
2013-08-30 14:52:00,91.4,60.6,29.97,NE,45,3.6,3.6,36,0.00,,,0.00,WUHU216HW,2013-08-30 21:52:00,
2013-08-30 14:57:00,91.8,60.0,29.97,NNW,338,1.6,3.6,35,0.00,,,0.00,WUHU216HW,2013-08-30 21:57:00,
2013-08-30 15:02:00,91.8,60.0,29.97,NW,315,0.7,2.9,35,0.00,,,0.00,WUHU216HW,2013-08-30 22:02:00,
2013-08-30 15:07:00,91.8,60.8,29.97,NNW,338,0.9,2.0,36,0.00,,,0.00,WUHU216HW,2013-08-30 22:07:00,
2013-08-30 15:12:00,92.3,61.3,29.97,NW,315,1.1,2.0,36,0.00,,,0.00,WUHU216HW,2013-08-30 22:12:00,
2013-08-30 15:17:00,92.7,60.9,29.96,NW,315,1.8,2.7,35,0.00,,,0.00,WUHU216HW,2013-08-30 22:17:00,
2013-08-30 15:22:00,92.9,61.0,29.96,ENE,68,1.3,2.7,35,0.00,,,0.00,WUHU216HW,2013-08-30 22:22:00,
2013-08-30 15:27:00,92.9,59.4,29.96,North,0,0.7,1.8,33,0.00,,,0.00,WUHU216HW,2013-08-30 22:27:00,
2013-08-30 15:32:00,93.1,60.3,29.96,SSW,203,0.4,1.8,34,0.00,,,0.00,WUHU216HW,2013-08-30 22:32:00,
2013-08-30 15:37:00,93.1,59.5,29.96,WNW,293,1.6,3.4,33,0.00,,,0.00,WUHU216HW,2013-08-30 22:37:00,
2013-08-30 15:42:00,93.1,58.7,29.95,West,270,0.9,3.4,32,0.00,,,0.00,WUHU216HW,2013-08-30 22:42:00,
2013-08-30 15:48:00,93.2,58.1,29.95,WNW,293,0.9,1.3,31,0.00,,,0.00,WUHU216HW,2013-08-30 22:48:00,
2013-08-30 15:53:00,92.9,55.9,29.95,NNW,338,0.4,1.6,29,0.00,,,0.00,WUHU216HW,2013-08-30 22:53:00,
2013-08-30 15:58:00,92.9,53.6,29.95,SE,135,2.2,2.2,27,0.00,,,0.00,WUHU216HW,2013-08-30 22:58:00,
2013-08-30 16:03:00,93.1,57.1,29.95,SSW,203,0.7,2.2,30,0.00,,,0.00,WUHU216HW,2013-08-30 23:03:00,
2013-08-30 16:08:00,93.4,57.4,29.95,NW,315,1.8,3.6,30,0.00,,,0.00,WUHU216HW,2013-08-30 23:08:00,
2013-08-30 16:13:00,93.6,56.4,29.95,NW,315,0.9,3.6,29,0.00,,,0.00,WUHU216HW,2013-08-30 23:13:00,
2013-08-30 16:18:00,93.6,57.6,29.95,NW,315,0.4,3.1,30,0.00,,,0.00,WUHU216HW,2013-08-30 23:18:00,
2013-08-30 16:23:00,93.4,57.4,29.94,West,270,0.9,1.6,30,0.00,,,0.00,WUHU216HW,2013-08-30 23:23:00,
2013-08-30 16:28:00,93.6,54.3,29.94,SSE,158,2.5,2.5,27,0.00,,,0.00,WUHU216HW,2013-08-30 23:28:00,
2013-08-30 16:33:00,94.0,57.9,29.94,NNW,338,0.7,2.5,30,0.00,,,0.00,WUHU216HW,2013-08-30 23:33:00,
2013-08-30 16:38:00,94.0,57.9,29.94,SW,225,0.4,1.1,30,0.00,,,0.00,WUHU216HW,2013-08-30 23:38:00,
2013-08-30 16:43:00,94.0,58.7,29.93,WSW,248,1.3,1.6,31,0.00,,,0.00,WUHU216HW,2013-08-30 23:43:00,
2013-08-30 16:48:00,93.4,58.2,29.93,SSW,203,0.7,1.8,31,0.00,,,0.00,WUHU216HW,2013-08-30 23:48:00,
2013-08-30 16:53:00,93.4,58.2,29.93,West,270,0.4,1.8,31,0.00,,,0.00,WUHU216HW,2013-08-30 23:53:00,
2013-08-30 16:58:00,93.2,58.1,29.93,NW,315,1.8,1.8,31,0.00,,,0.00,WUHU216HW,2013-08-30 23:58:00,
2013-08-30 17:03:00,93.1,57.1,29.93,SE,135,0.4,1.8,30,0.00,,,0.00,WUHU216HW,2013-08-31 00:03:00,
2013-08-30 17:08:00,93.1,57.9,29.93,NNW,338,1.1,1.1,31,0.00,,,0.00,WUHU216HW,2013-08-31 00:08:00,
2013-08-30 17:13:00,92.9,57.8,29.92,South,180,0.0,1.1,31,0.00,,,0.00,WUHU216HW,2013-08-31 00:13:00,
2013-08-30 17:18:00,92.7,57.6,29.92,NW,315,0.9,0.9,31,0.00,,,0.00,WUHU216HW,2013-08-31 00:18:00,
2013-08-30 17:23:00,92.5,57.5,29.92,NW,315,0.4,1.1,31,0.00,,,0.00,WUHU216HW,2013-08-31 00:23:00,
2013-08-30 17:28:00,92.5,58.2,29.92,NW,315,0.4,1.1,32,0.00,,,0.00,WUHU216HW,2013-08-31 00:28:00,
2013-08-30 17:33:00,92.5,58.2,29.92,NE,45,0.0,1.1,32,0.00,,,0.00,WUHU216HW,2013-08-31 00:33:00,
2013-08-30 17:38:00,92.3,58.2,29.92,NW,315,0.7,1.6,32,0.00,,,0.00,WUHU216HW,2013-08-31 00:38:00,
2013-08-30 17:43:00,92.2,56.3,29.92,SE,135,1.1,1.6,30,0.00,,,0.00,WUHU216HW,2013-08-31 00:43:00,
2013-08-30 17:48:00,92.3,57.3,29.92,NW,315,0.2,1.3,31,0.00,,,0.00,WUHU216HW,2013-08-31 00:48:00,
2013-08-30 17:53:00,92.3,58.2,29.91,NNW,338,0.4,1.6,32,0.00,,,0.00,WUHU216HW,2013-08-31 00:53:00,
2013-08-30 17:58:00,92.2,58.0,29.91,SSE,158,0.0,1.6,32,0.00,,,0.00,WUHU216HW,2013-08-31 00:58:00,
2013-08-30 18:03:00,92.2,58.0,29.91,South,180,1.1,1.6,32,0.00,,,0.00,WUHU216HW,2013-08-31 01:03:00,
2013-08-30 18:08:00,92.0,58.6,29.91,South,180,0.4,1.1,33,0.00,,,0.00,WUHU216HW,2013-08-31 01:08:00,
2013-08-30 18:13:00,91.8,57.7,29.91,NE,45,0.7,1.1,32,0.00,,,0.00,WUHU216HW,2013-08-31 01:13:00,
2013-08-30 18:19:00,91.6,57.5,29.91,NNW,338,0.4,1.1,32,0.00,,,0.00,WUHU216HW,2013-08-31 01:19:00,
2013-08-30 18:24:00,91.4,57.4,29.91,SE,135,0.2,0.9,32,0.00,,,0.00,WUHU216HW,2013-08-31 01:24:00,
2013-08-30 18:29:00,91.3,58.1,29.91,SE,135,0.0,0.9,33,0.00,,,0.00,WUHU216HW,2013-08-31 01:29:00,
2013-08-30 18:34:00,91.1,57.9,29.91,SE,135,0.4,0.4,33,0.00,,,0.00,WUHU216HW,2013-08-31 01:34:00,
2013-08-30 18:39:00,90.7,58.3,29.91,SE,135,0.0,0.7,34,0.00,,,0.00,WUHU216HW,2013-08-31 01:39:00,
2013-08-30 18:44:00,90.4,58.8,29.91,South,180,0.0,1.1,35,0.00,,,0.00,WUHU216HW,2013-08-31 01:44:00,
2013-08-30 18:49:00,90.2,58.6,29.91,SSE,158,0.4,1.1,35,0.00,,,0.00,WUHU216HW,2013-08-31 01:49:00,
2013-08-30 18:54:00,89.8,58.3,29.90,SSE,158,0.7,0.7,35,0.00,,,0.00,WUHU216HW,2013-08-31 01:54:00,
2013-08-30 18:59:00,89.6,59.0,29.90,SSE,158,0.0,1.1,36,0.00,,,0.00,WUHU216HW,2013-08-31 01:59:00,
2013-08-30 19:04:00,89.5,58.0,29.90,SSE,158,0.9,1.6,35,0.00,,,0.00,WUHU216HW,2013-08-31 02:04:00,
2013-08-30 19:09:00,89.5,58.0,29.90,SE,135,0.4,1.6,35,0.00,,,0.00,WUHU216HW,2013-08-31 02:09:00,
2013-08-30 19:14:00,89.3,57.1,29.90,SW,225,0.4,1.6,34,0.00,,,0.00,WUHU216HW,2013-08-31 02:14:00,
2013-08-30 19:19:00,88.9,57.5,29.90,SE,135,0.2,0.7,35,0.00,,,0.00,WUHU216HW,2013-08-31 02:19:00,
2013-08-30 19:24:00,88.6,57.3,29.91,SSE,158,2.5,2.5,35,0.00,,,0.00,WUHU216HW,2013-08-31 02:24:00,
2013-08-30 19:29:00,88.2,56.1,29.90,SSE,158,0.7,2.5,34,0.00,,,0.00,WUHU216HW,2013-08-31 02:29:00,
2013-08-30 19:34:00,87.8,57.4,29.91,South,180,0.4,2.5,36,0.00,,,0.00,WUHU216HW,2013-08-31 02:34:00,
2013-08-30 19:39:00,87.5,57.2,29.91,SE,135,0.4,2.5,36,0.00,,,0.00,WUHU216HW,2013-08-31 02:39:00,
2013-08-30 19:44:00,87.1,58.4,29.91,SE,135,0.0,1.1,38,0.00,,,0.00,WUHU216HW,2013-08-31 02:44:00,
2013-08-30 19:49:00,86.8,57.3,29.91,SE,135,0.0,0.4,37,0.00,,,0.00,WUHU216HW,2013-08-31 02:49:00,
2013-08-30 19:54:00,86.4,57.8,29.91,WSW,248,1.6,1.6,38,0.00,,,0.00,WUHU216HW,2013-08-31 02:54:00,
2013-08-30 19:59:00,85.9,57.3,29.91,SE,135,1.1,1.6,38,0.00,,,0.00,WUHU216HW,2013-08-31 02:59:00,
2013-08-30 20:04:00,85.5,57.8,29.91,SSE,158,0.4,1.1,39,0.00,,,0.00,WUHU216HW,2013-08-31 03:04:00,
2013-08-30 20:09:00,85.3,57.6,29.91,SSE,158,0.4,2.9,39,0.00,,,0.00,WUHU216HW,2013-08-31 03:09:00,
2013-08-30 20:14:00,85.0,57.2,29.92,SSE,158,0.9,2.9,39,0.00,,,0.00,WUHU216HW,2013-08-31 03:14:00,
2013-08-30 20:19:00,84.8,57.2,29.92,SSW,203,0.4,1.8,39,0.00,,,0.00,WUHU216HW,2013-08-31 03:19:00,
2013-08-30 20:24:00,84.8,57.9,29.92,SSW,203,0.4,1.1,40,0.00,,,0.00,WUHU216HW,2013-08-31 03:24:00,
2013-08-30 20:29:00,84.4,57.6,29.92,SSE,158,0.7,0.9,40,0.00,,,0.00,WUHU216HW,2013-08-31 03:29:00,
2013-08-30 20:34:00,84.1,57.2,29.92,South,180,0.4,0.9,40,0.00,,,0.00,WUHU216HW,2013-08-31 03:34:00,
2013-08-30 20:39:00,83.7,57.6,29.92,SSE,158,1.3,1.6,41,0.00,,,0.00,WUHU216HW,2013-08-31 03:39:00,
2013-08-30 20:44:00,83.3,57.3,29.92,SW,225,1.1,1.6,41,0.00,,,0.00,WUHU216HW,2013-08-31 03:44:00,
2013-08-30 20:49:00,83.0,57.5,29.92,SSW,203,0.9,1.6,42,0.00,,,0.00,WUHU216HW,2013-08-31 03:49:00,
2013-08-30 20:54:00,82.6,57.2,29.93,SSW,203,0.9,1.3,42,0.00,,,0.00,WUHU216HW,2013-08-31 03:54:00,
2013-08-30 20:59:00,82.3,57.5,29.93,SSE,158,1.8,2.0,43,0.00,,,0.00,WUHU216HW,2013-08-31 03:59:00,
2013-08-30 21:01:00,82.3,57.5,29.93,SSE,158,1.8,2.0,43,0.00,,,0.00,WUHU216HW,2013-08-31 04:01:00,
2013-08-30 21:02:00,82.1,57.3,29.93,SSW,203,1.1,2.7,43,0.00,,,0.00,WUHU216HW,2013-08-31 04:02:00,
2013-08-30 21:04:00,81.9,57.2,29.93,SSW,203,1.6,2.7,43,0.00,,,0.00,WUHU216HW,2013-08-31 04:04:00,
2013-08-30 21:09:00,81.7,57.0,29.93,South,180,1.1,2.7,43,0.00,,,0.00,WUHU216HW,2013-08-31 04:09:00,
2013-08-30 21:14:00,81.4,57.2,29.93,South,180,0.7,2.5,44,0.00,,,0.00,WUHU216HW,2013-08-31 04:14:00,
2013-08-30 21:19:00,81.0,57.0,29.93,SSW,203,1.6,2.2,44,0.00,,,0.00,WUHU216HW,2013-08-31 04:19:00,
2013-08-30 21:24:00,80.8,56.8,29.93,SSE,158,1.1,2.2,44,0.00,,,0.00,WUHU216HW,2013-08-31 04:24:00,
2013-08-30 21:30:00,80.6,56.6,29.93,ESE,113,1.3,1.3,44,0.00,,,0.00,WUHU216HW,2013-08-31 04:30:00,
2013-08-30 21:35:00,80.3,56.4,29.93,SSE,158,0.4,1.3,44,0.00,,,0.00,WUHU216HW,2013-08-31 04:35:00,
2013-08-30 21:40:00,80.1,56.2,29.93,SSE,158,1.3,1.3,44,0.00,,,0.00,WUHU216HW,2013-08-31 04:40:00,
2013-08-30 21:45:00,79.9,56.6,29.93,SE,135,0.4,1.8,45,0.00,,,0.00,WUHU216HW,2013-08-31 04:45:00,
2013-08-30 21:50:00,79.6,56.3,29.93,SSW,203,0.9,1.8,45,0.00,,,0.00,WUHU216HW,2013-08-31 04:50:00,
2013-08-30 21:55:00,79.2,56.0,29.93,SE,135,0.0,1.6,45,0.00,,,0.00,WUHU216HW,2013-08-31 04:55:00,
2013-08-30 22:00:00,78.8,55.6,29.93,ESE,113,1.1,1.1,45,0.00,,,0.00,WUHU216HW,2013-08-31 05:00:00,
2013-08-30 22:05:00,78.5,55.9,29.93,SE,135,0.0,1.1,46,0.00,,,0.00,WUHU216HW,2013-08-31 05:05:00,
2013-08-30 22:10:00,78.3,55.7,29.93,South,180,0.7,1.1,46,0.00,,,0.00,WUHU216HW,2013-08-31 05:10:00,
2013-08-30 22:15:00,78.1,55.6,29.93,SSE,158,0.7,1.3,46,0.00,,,0.00,WUHU216HW,2013-08-31 05:15:00,
2013-08-30 22:20:00,77.8,55.3,29.93,WSW,248,1.8,1.8,46,0.00,,,0.00,WUHU216HW,2013-08-31 05:20:00,
2013-08-30 22:25:00,77.6,55.7,29.94,SSE,158,0.2,2.0,47,0.00,,,0.00,WUHU216HW,2013-08-31 05:25:00,
2013-08-30 22:30:00,77.4,55.5,29.94,South,180,0.4,2.0,47,0.00,,,0.00,WUHU216HW,2013-08-31 05:30:00,
2013-08-30 22:35:00,77.0,55.3,29.94,SSE,158,1.3,1.3,47,0.00,,,0.00,WUHU216HW,2013-08-31 05:35:00,
2013-08-30 22:40:00,76.9,55.1,29.93,SSE,158,0.7,1.8,47,0.00,,,0.00,WUHU216HW,2013-08-31 05:40:00,
2013-08-30 22:45:00,76.7,55.5,29.93,SSE,158,0.4,1.8,48,0.00,,,0.00,WUHU216HW,2013-08-31 05:45:00,
2013-08-30 22:50:00,76.5,55.4,29.94,South,180,1.1,1.1,48,0.00,,,0.00,WUHU216HW,2013-08-31 05:50:00,
2013-08-30 22:55:00,76.3,55.2,29.94,SE,135,1.3,1.3,48,0.00,,,0.00,WUHU216HW,2013-08-31 05:55:00,
2013-08-30 23:00:00,76.1,55.0,29.94,South,180,0.4,1.3,48,0.00,,,0.00,WUHU216HW,2013-08-31 06:00:00,
2013-08-30 23:05:00,76.0,54.9,29.94,SE,135,1.8,1.8,48,0.00,,,0.00,WUHU216HW,2013-08-31 06:05:00,
2013-08-30 23:10:00,75.6,55.2,29.94,SSE,158,0.4,1.8,49,0.00,,,0.00,WUHU216HW,2013-08-31 06:10:00,
2013-08-30 23:15:00,75.4,55.0,29.93,SSW,203,0.2,1.1,49,0.00,,,0.00,WUHU216HW,2013-08-31 06:15:00,
2013-08-30 23:20:00,75.2,54.8,29.93,South,180,0.9,1.1,49,0.00,,,0.00,WUHU216HW,2013-08-31 06:20:00,
2013-08-30 23:25:00,75.1,55.3,29.93,SSE,158,0.4,1.3,50,0.00,,,0.00,WUHU216HW,2013-08-31 06:25:00,
2013-08-30 23:30:00,74.9,55.1,29.94,SSE,158,0.4,1.3,50,0.00,,,0.00,WUHU216HW,2013-08-31 06:30:00,
2013-08-30 23:35:00,74.5,54.7,29.94,SSE,158,0.2,0.7,50,0.00,,,0.00,WUHU216HW,2013-08-31 06:35:00,
2013-08-30 23:40:00,74.3,55.1,29.94,SSE,158,0.0,0.4,51,0.00,,,0.00,WUHU216HW,2013-08-31 06:40:00,
2013-08-30 23:45:00,74.0,54.7,29.94,SSE,158,0.0,0.4,51,0.00,,,0.00,WUHU216HW,2013-08-31 06:45:00,
2013-08-30 23:50:00,73.6,54.8,29.94,SSE,158,0.0,0.4,52,0.00,,,0.00,WUHU216HW,2013-08-31 06:50:00,
2013-08-30 23:55:00,73.3,54.5,29.95,SSE,158,0.0,0.0,52,0.00,,,0.00,WUHU216HW,2013-08-31 06:55:00,